NOZ1972 ENGM-LOWW

Flight info

Callsign NOZ1972
Flight time N/A
Altitude 35000
Route OKSAT L996 KELIN DCT SALLO DCT HDO DCT EVIKU DCT BITSI DCT MIKOV MIKOV8W
Aircraft B738/M-SDE2E3FGHIRWXY/LB1

Departure

Time 2026-05-01 09:25
Airport Oslo-Gardermoen International Airport (ENGM)

Arrival

Time N/A
Airport Vienna International Airport (LOWW)
Time Latitude Longitude Altitude Speed Heading
2026-05-01 08:54 60.19632 11.09953 684 ft 0 kts 106°
2026-05-01 09:16 60.19634 11.09938 676 ft 4 kts 106°
2026-05-01 09:17 60.19644 11.09863 679 ft 0 kts 106°
2026-05-01 09:19 60.19646 11.09874 678 ft 1 kts 71°
2026-05-01 09:19 60.19655 11.09869 679 ft 1 kts 316°
2026-05-01 09:19 60.19656 11.09831 681 ft 5 kts 275°
2026-05-01 09:20 60.19725 11.09613 679 ft 14 kts 286°
2026-05-01 09:20 60.19793 11.09125 682 ft 22 kts 286°
2026-05-01 09:21 60.19905 11.08743 678 ft 13 kts 17°
2026-05-01 09:21 60.20007 11.08805 679 ft 19 kts 15°
2026-05-01 09:21 60.20339 11.08992 681 ft 26 kts 15°
2026-05-01 09:22 60.20672 11.09183 682 ft 25 kts 16°
2026-05-01 09:22 60.21030 11.09393 685 ft 27 kts 17°
2026-05-01 09:23 60.21202 11.09495 681 ft 25 kts 17°
2026-05-01 09:23 60.21495 11.09630 686 ft 16 kts 343°
2026-05-01 09:24 60.21575 11.09250 683 ft 13 kts 267°
2026-05-01 09:24 60.21519 11.09122 680 ft 13 kts 200°
2026-05-01 09:24 60.21358 11.09025 682 ft 66 kts 196°
2026-05-01 09:25 60.19482 11.07892 1734 ft 164 kts 199°
2026-05-01 09:25 60.17158 11.06431 3917 ft 199 kts 206°
2026-05-01 09:26 60.15990 11.04585 4236 ft 240 kts 242°
2026-05-01 09:26 60.14772 10.98031 6186 ft 250 kts 247°
2026-05-01 09:26 60.14259 10.94729 7224 ft 251 kts 266°
2026-05-01 09:27 60.14879 10.87754 9175 ft 259 kts 278°
2026-05-01 09:27 60.15274 10.84187 10105 ft 266 kts 288°
2026-05-01 09:27 60.16405 10.81137 10788 ft 290 kts 316°
2026-05-01 09:28 60.18335 10.79304 11025 ft 331 kts 343°
2026-05-01 09:28 60.20750 10.79180 11231 ft 368 kts
2026-05-01 09:28 60.23159 10.81270 11578 ft 399 kts 33°
2026-05-01 09:28 60.25031 10.85470 12269 ft 412 kts 59°
2026-05-01 09:29 60.27078 10.96391 13823 ft 423 kts 69°
2026-05-01 09:29 60.27789 11.02263 14410 ft 433 kts 86°
2026-05-01 09:30 60.25980 11.13393 15825 ft 425 kts 134°
2026-05-01 09:30 60.23888 11.17546 16525 ft 420 kts 147°
2026-05-01 09:30 60.18888 11.23631 17814 ft 423 kts 156°
2026-05-01 09:31 60.16330 11.26596 18472 ft 427 kts 156°
2026-05-01 09:31 60.13747 11.29621 19059 ft 431 kts 155°
2026-05-01 09:31 60.08546 11.35807 20199 ft 438 kts 155°
2026-05-01 09:32 60.05920 11.38951 20683 ft 443 kts 154°
2026-05-01 09:32 60.00572 11.45349 21725 ft 450 kts 154°
2026-05-01 09:32 59.97909 11.48519 22243 ft 453 kts 154°
2026-05-01 09:33 59.95132 11.51688 22727 ft 454 kts 158°
2026-05-01 09:33 59.92307 11.54303 23228 ft 454 kts 162°
2026-05-01 09:33 59.86434 11.59129 24125 ft 460 kts 163°
2026-05-01 09:34 59.83465 11.61588 24521 ft 463 kts 162°
2026-05-01 09:34 59.80495 11.64104 24925 ft 465 kts 162°
2026-05-01 09:34 59.74529 11.69261 25695 ft 470 kts 161°
2026-05-01 09:35 59.71514 11.71879 26070 ft 473 kts 161°
2026-05-01 09:35 59.65451 11.77112 26771 ft 478 kts 161°
2026-05-01 09:35 59.62373 11.79578 27101 ft 477 kts 165°
2026-05-01 09:36 59.59207 11.81474 27444 ft 477 kts 169°
2026-05-01 09:36 59.55984 11.83135 27691 ft 480 kts 170°
2026-05-01 09:36 59.52741 11.84773 28012 ft 482 kts 169°
2026-05-01 09:36 59.49506 11.86467 28538 ft 480 kts 169°
2026-05-01 09:37 59.46297 11.88216 29122 ft 477 kts 168°
2026-05-01 09:37 59.39928 11.91781 30090 ft 475 kts 168°
2026-05-01 09:37 59.36749 11.93560 30487 ft 475 kts 168°
2026-05-01 09:38 59.30336 11.95902 31238 ft 462 kts 187°
2026-05-01 09:38 59.27159 11.95326 31733 ft 457 kts 189°
2026-05-01 09:38 59.23993 11.94818 32100 ft 457 kts 188°
2026-05-01 09:39 59.17623 11.94049 32739 ft 459 kts 187°
2026-05-01 09:39 59.14431 11.93721 33146 ft 458 kts 187°
2026-05-01 09:39 59.11257 11.93400 33544 ft 456 kts 187°
2026-05-01 09:40 59.08086 11.93073 33907 ft 456 kts 187°
2026-05-01 09:40 59.01799 11.92408 34489 ft 456 kts 187°
2026-05-01 09:40 58.98627 11.92055 34764 ft 456 kts 187°
2026-05-01 09:41 58.95458 11.91699 35104 ft 455 kts 187°
2026-05-01 09:41 58.89098 11.90984 35290 ft 460 kts 187°
2026-05-01 09:41 58.85907 11.90630 35287 ft 459 kts 187°
2026-05-01 09:42 58.79555 11.90266 35292 ft 457 kts 178°
2026-05-01 09:43 58.66934 11.93965 35318 ft 460 kts 175°
2026-05-01 09:43 58.60580 11.95685 35319 ft 469 kts 175°
2026-05-01 09:44 58.50783 11.98324 35319 ft 475 kts 175°
2026-05-01 09:45 58.44257 12.00086 35323 ft 472 kts 174°
2026-05-01 09:45 58.34533 12.02696 35323 ft 470 kts 174°
2026-05-01 09:46 58.28041 12.04430 35325 ft 470 kts 174°
2026-05-01 09:46 58.21576 12.06359 35339 ft 471 kts 171°
2026-05-01 09:47 58.15164 12.09156 35343 ft 472 kts 168°
2026-05-01 09:47 58.08812 12.12098 35348 ft 473 kts 169°
2026-05-01 09:48 58.02408 12.14967 35352 ft 473 kts 169°
2026-05-01 09:48 57.95996 12.17758 35368 ft 473 kts 169°
2026-05-01 09:49 57.89576 12.20518 35364 ft 473 kts 169°
2026-05-01 09:49 57.83166 12.23262 35370 ft 473 kts 169°
2026-05-01 09:50 57.76739 12.26006 35372 ft 473 kts 169°
2026-05-01 09:50 57.70312 12.28743 35376 ft 475 kts 169°
2026-05-01 09:51 57.63860 12.31481 35372 ft 475 kts 169°
2026-05-01 09:51 57.57415 12.34205 35368 ft 476 kts 168°
2026-05-01 09:52 57.50951 12.36928 35378 ft 475 kts 168°
2026-05-01 09:52 57.44539 12.39620 35375 ft 474 kts 168°
2026-05-01 09:53 57.38093 12.42315 35387 ft 474 kts 168°
2026-05-01 09:53 57.31645 12.45001 35385 ft 475 kts 168°
2026-05-01 09:54 57.26289 12.47226 35386 ft 475 kts 168°
2026-05-01 09:54 57.18797 12.50326 35388 ft 474 kts 168°
2026-05-01 09:55 57.12357 12.52980 35381 ft 475 kts 168°
2026-05-01 09:55 57.06942 12.55205 35396 ft 477 kts 168°
2026-05-01 09:56 57.00451 12.57863 35396 ft 478 kts 168°
2026-05-01 09:56 56.94015 12.60490 35397 ft 476 kts 168°
2026-05-01 09:57 56.87538 12.63124 35401 ft 475 kts 168°
2026-05-01 09:57 56.81082 12.65740 35401 ft 475 kts 168°
2026-05-01 09:58 56.74636 12.68343 35403 ft 475 kts 168°
2026-05-01 09:58 56.68181 12.70939 35404 ft 474 kts 167°
2026-05-01 09:59 56.61739 12.73522 35400 ft 474 kts 168°
2026-05-01 09:59 56.55294 12.76097 35404 ft 474 kts 168°
2026-05-01 10:00 56.48847 12.78664 35404 ft 474 kts 168°
2026-05-01 10:00 56.42437 12.81207 35401 ft 476 kts 167°
2026-05-01 10:01 56.35942 12.83775 35399 ft 478 kts 167°
2026-05-01 10:01 56.29435 12.86339 35402 ft 478 kts 167°
2026-05-01 10:02 56.22929 12.88893 35417 ft 479 kts 167°
2026-05-01 10:02 56.16421 12.91439 35414 ft 479 kts 167°
2026-05-01 10:03 56.09921 12.93974 35416 ft 476 kts 167°
2026-05-01 10:03 56.03451 12.96488 35421 ft 476 kts 167°
2026-05-01 10:04 55.96982 12.98993 35414 ft 476 kts 167°
2026-05-01 10:04 55.90509 13.01492 35418 ft 476 kts 167°
2026-05-01 10:05 55.84044 13.03978 35422 ft 476 kts 167°
2026-05-01 10:05 55.77569 13.06459 35421 ft 476 kts 167°
2026-05-01 10:06 55.71086 13.08936 35425 ft 476 kts 167°
2026-05-01 10:06 55.64646 13.11388 35423 ft 477 kts 167°
2026-05-01 10:07 55.58152 13.13852 35422 ft 477 kts 167°
2026-05-01 10:07 55.51659 13.16307 35402 ft 477 kts 167°
2026-05-01 10:08 55.41930 13.19971 35403 ft 476 kts 167°
2026-05-01 10:09 55.35443 13.22404 35408 ft 476 kts 167°
2026-05-01 10:09 55.28966 13.24824 35408 ft 476 kts 167°
2026-05-01 10:10 55.22484 13.27239 35417 ft 476 kts 167°
2026-05-01 10:10 55.12765 13.30844 35422 ft 476 kts 167°
2026-05-01 10:11 55.06260 13.33248 35418 ft 477 kts 167°
2026-05-01 10:11 54.99826 13.35618 35418 ft 477 kts 167°
2026-05-01 10:12 54.93327 13.38003 35425 ft 477 kts 167°
2026-05-01 10:13 54.83491 13.40990 35420 ft 478 kts 171°
2026-05-01 10:13 54.76903 13.42660 35422 ft 478 kts 171°
2026-05-01 10:14 54.67048 13.45226 35424 ft 478 kts 170°
2026-05-01 10:14 54.60508 13.46968 35426 ft 477 kts 170°
2026-05-01 10:15 54.53947 13.48718 35424 ft 477 kts 170°
2026-05-01 10:15 54.47378 13.50463 35445 ft 477 kts 170°
2026-05-01 10:16 54.40808 13.52201 35430 ft 478 kts 170°
2026-05-01 10:17 54.30935 13.54801 35424 ft 478 kts 170°
2026-05-01 10:17 54.21056 13.57389 35420 ft 478 kts 170°
2026-05-01 10:18 54.11188 13.59963 35420 ft 478 kts 170°
2026-05-01 10:19 54.04656 13.61660 35420 ft 478 kts 170°
2026-05-01 10:19 53.98083 13.63361 35420 ft 478 kts 170°
2026-05-01 10:20 53.88206 13.65908 35418 ft 478 kts 170°
2026-05-01 10:20 53.81634 13.67596 35420 ft 477 kts 170°
2026-05-01 10:21 53.71774 13.70119 35418 ft 478 kts 170°
2026-05-01 10:22 53.61931 13.72625 35419 ft 479 kts 170°
2026-05-01 10:23 53.52045 13.75131 35415 ft 479 kts 170°
2026-05-01 10:23 53.42157 13.77625 35418 ft 479 kts 170°
2026-05-01 10:24 53.28970 13.80933 35417 ft 479 kts 170°
2026-05-01 10:25 53.15781 13.84220 35415 ft 479 kts 170°
2026-05-01 10:26 53.09175 13.85860 35415 ft 480 kts 170°
2026-05-01 10:27 52.95959 13.89124 35412 ft 480 kts 170°
2026-05-01 10:28 52.86024 13.91565 35409 ft 482 kts 170°
2026-05-01 10:28 52.76066 13.94000 35411 ft 483 kts 170°
2026-05-01 10:29 52.66094 13.96426 35411 ft 483 kts 170°
2026-05-01 10:30 52.52838 13.99635 35415 ft 483 kts 170°
2026-05-01 10:31 52.39535 14.02836 35429 ft 483 kts 170°
2026-05-01 10:32 52.29531 14.05231 35418 ft 485 kts 169°
2026-05-01 10:33 52.16176 14.08410 35416 ft 485 kts 169°
2026-05-01 10:34 52.06140 14.10786 35422 ft 486 kts 169°
2026-05-01 10:34 51.99445 14.12366 35421 ft 486 kts 169°
2026-05-01 10:35 51.89438 14.14717 35420 ft 487 kts 169°
2026-05-01 10:35 51.82687 14.16298 35409 ft 487 kts 169°
2026-05-01 10:36 51.72676 14.18633 35409 ft 487 kts 169°
2026-05-01 10:37 51.65964 14.20193 35412 ft 487 kts 169°
2026-05-01 10:37 51.55894 14.22524 35410 ft 487 kts 169°
2026-05-01 10:38 51.49174 14.24074 35414 ft 488 kts 169°
2026-05-01 10:38 51.42456 14.25619 35420 ft 488 kts 169°
2026-05-01 10:39 51.35736 14.27160 35424 ft 488 kts 169°
2026-05-01 10:39 51.29007 14.28698 35417 ft 488 kts 169°
2026-05-01 10:40 51.22269 14.30234 35426 ft 489 kts 169°
2026-05-01 10:40 51.15541 14.31763 35424 ft 489 kts 169°
2026-05-01 10:41 51.08843 14.33281 35431 ft 489 kts 169°
2026-05-01 10:42 50.98747 14.35561 35404 ft 487 kts 169°
2026-05-01 10:42 50.93130 14.36827 35420 ft 487 kts 169°
2026-05-01 10:43 50.86542 14.38963 35413 ft 486 kts 163°
2026-05-01 10:43 50.79984 14.41560 35418 ft 486 kts 163°
2026-05-01 10:44 50.73413 14.44084 35417 ft 486 kts 164°
2026-05-01 10:44 50.66819 14.46520 35412 ft 487 kts 164°
2026-05-01 10:45 50.60220 14.48936 35403 ft 487 kts 164°
2026-05-01 10:45 50.53612 14.51356 35416 ft 488 kts 164°
2026-05-01 10:46 50.47170 14.54501 35410 ft 482 kts 149°
2026-05-01 10:46 50.41759 14.60393 35411 ft 473 kts 132°
2026-05-01 10:47 50.37090 14.67664 35410 ft 473 kts 131°
2026-05-01 10:47 50.32374 14.74882 35416 ft 474 kts 131°
2026-05-01 10:48 50.27630 14.82047 35414 ft 474 kts 132°
2026-05-01 10:48 50.22874 14.89187 35424 ft 474 kts 131°
2026-05-01 10:49 50.18130 14.96289 35418 ft 475 kts 131°
2026-05-01 10:49 50.13365 15.03408 35407 ft 475 kts 131°
2026-05-01 10:50 50.08590 15.10521 35407 ft 475 kts 131°
2026-05-01 10:50 50.03813 15.17617 35411 ft 475 kts 132°
2026-05-01 10:51 49.99026 15.24708 35421 ft 475 kts 131°
2026-05-01 10:51 49.94226 15.31796 35405 ft 475 kts 131°
2026-05-01 10:52 49.89420 15.38873 35409 ft 475 kts 131°
2026-05-01 10:52 49.84645 15.45884 35413 ft 475 kts 131°
2026-05-01 10:53 49.79839 15.52921 35413 ft 475 kts 131°
2026-05-01 10:53 49.75030 15.59942 35410 ft 475 kts 131°
2026-05-01 10:54 49.70218 15.66947 35401 ft 475 kts 131°
2026-05-01 10:54 49.65409 15.73926 35396 ft 471 kts 131°
2026-05-01 10:55 49.60690 15.80748 35396 ft 460 kts 131°
2026-05-01 10:55 49.56026 15.87487 35402 ft 459 kts 131°
2026-05-01 10:56 49.51343 15.94237 34818 ft 464 kts 131°
2026-05-01 10:56 49.49011 15.97587 34209 ft 461 kts 131°
2026-05-01 10:56 49.46670 16.00944 33479 ft 459 kts 131°
2026-05-01 10:56 49.44341 16.04279 32798 ft 456 kts 131°
2026-05-01 10:57 49.42028 16.07588 32097 ft 455 kts 131°
2026-05-01 10:57 49.39713 16.10897 31346 ft 454 kts 131°
2026-05-01 10:57 49.37401 16.14199 30672 ft 452 kts 131°
2026-05-01 10:57 49.35092 16.17493 29830 ft 452 kts 131°
2026-05-01 10:58 49.32789 16.20769 29005 ft 451 kts 131°
2026-05-01 10:58 49.30373 16.23830 28190 ft 455 kts 139°
2026-05-01 10:58 49.27606 16.26189 27694 ft 455 kts 149°
2026-05-01 10:58 49.24719 16.28235 27095 ft 463 kts 149°
2026-05-01 10:59 49.21765 16.30363 26521 ft 472 kts 149°
2026-05-01 10:59 49.18812 16.32512 25905 ft 465 kts 148°
2026-05-01 10:59 49.15955 16.34602 25328 ft 457 kts 148°
2026-05-01 10:59 49.13118 16.36688 24761 ft 449 kts 148°
2026-05-01 11:00 49.10321 16.38751 24195 ft 442 kts 148°
2026-05-01 11:00 49.07569 16.40783 23560 ft 436 kts 148°
2026-05-01 11:00 49.04858 16.42784 22938 ft 430 kts 148°
2026-05-01 11:00 49.02185 16.44754 22383 ft 423 kts 148°
2026-05-01 11:01 48.99558 16.46687 21829 ft 418 kts 148°
2026-05-01 11:01 48.96953 16.48602 21297 ft 413 kts 148°
2026-05-01 11:01 48.94368 16.50500 20750 ft 412 kts 148°
2026-05-01 11:01 48.91749 16.52428 20216 ft 423 kts 148°
2026-05-01 11:02 48.89086 16.54382 19644 ft 424 kts 149°
2026-05-01 11:02 48.86444 16.56308 19089 ft 417 kts 149°
2026-05-01 11:02 48.83875 16.58179 18536 ft 411 kts 149°
2026-05-01 11:02 48.81314 16.60043 17929 ft 405 kts 149°
2026-05-01 11:03 48.78798 16.61864 17376 ft 399 kts 150°
2026-05-01 11:03 48.76185 16.63208 17133 ft 394 kts 161°
2026-05-01 11:03 48.73489 16.64045 16907 ft 403 kts 165°
2026-05-01 11:03 48.70680 16.64817 16647 ft 416 kts 165°
2026-05-01 11:04 48.67818 16.65643 16366 ft 419 kts 164°
2026-05-01 11:04 48.64974 16.66534 16093 ft 415 kts 163°
2026-05-01 11:04 48.62158 16.67453 15826 ft 413 kts 163°
2026-05-01 11:04 48.59326 16.68177 15543 ft 416 kts 174°
2026-05-01 11:05 48.56452 16.67479 15273 ft 423 kts 200°
2026-05-01 11:05 48.53934 16.65226 15060 ft 422 kts 217°
2026-05-01 11:05 48.51635 16.62467 14787 ft 421 kts 218°
2026-05-01 11:05 48.49318 16.59759 14518 ft 421 kts 216°
2026-05-01 11:06 48.46722 16.57784 14206 ft 418 kts 192°
2026-05-01 11:06 48.43868 16.57498 13975 ft 408 kts 171°
2026-05-01 11:06 48.41102 16.58286 13697 ft 401 kts 161°
2026-05-01 11:07 48.35779 16.60674 13171 ft 398 kts 159°
2026-05-01 11:07 48.33127 16.61850 12908 ft 396 kts 160°
2026-05-01 11:07 48.30482 16.62982 12651 ft 394 kts 160°
2026-05-01 11:07 48.27845 16.64091 12418 ft 393 kts 160°
2026-05-01 11:08 48.25219 16.65189 12161 ft 391 kts 160°
2026-05-01 11:08 48.22633 16.66269 11904 ft 380 kts 160°
2026-05-01 11:08 48.17718 16.68322 11426 ft 354 kts 160°
2026-05-01 11:09 48.15416 16.69285 11212 ft 343 kts 160°
2026-05-01 11:09 48.13148 16.70233 11001 ft 333 kts 160°
2026-05-01 11:09 48.10942 16.71154 10795 ft 324 kts 160°
2026-05-01 11:10 48.06713 16.72914 10398 ft 308 kts 159°
2026-05-01 11:10 48.04692 16.73753 10374 ft 294 kts 159°
2026-05-01 11:10 48.02707 16.74581 9769 ft 303 kts 159°
2026-05-01 11:10 48.00736 16.75400 9725 ft 289 kts 159°
2026-05-01 11:11 47.98770 16.76218 9298 ft 291 kts 160°
2026-05-01 11:11 47.96836 16.77020 9023 ft 287 kts 160°